| time (UTC) | temp C | wind direction | speed KPH | gust KPH | rain 1hr cm | rain 24hr cm | rain mn cm | humidity % | barometer mb |
| 20260906135003 | 20 | 99 | 0.0 | 4.8 | 0.00 | 0.00 | 0.00 | 97 | 1018.4 |
| 20260906133003 | 20 | 17 | 0.0 | 0.0 | 0.00 | 0.00 | 0.00 | 97 | 1018.4 |
| 20260906132004 | 19 | 21 | 0.0 | 0.0 | 0.00 | 0.00 | 0.00 | 97 | 1018.2 |
| 20260906130004 | 18 | 21 | 0.0 | 0.0 | 0.00 | 0.00 | 0.00 | 97 | 1018.1 |
| 20260906123003 | 17 | 21 | 0.0 | 0.0 | 0.00 | 0.00 | 0.00 | 97 | 1017.7 |
| 20260906122003 | 17 | 21 | 0.0 | 0.0 | 0.00 | 0.00 | 0.00 | 97 | 1017.7 |
| 20260906120004 | 17 | 21 | 0.0 | 0.0 | 0.00 | 0.00 | 0.00 | 96 | 1017.4 |
| 20260906115004 | 17 | 21 | 0.0 | 0.0 | 0.00 | 0.00 | 0.00 | 96 | 1017.4 |
| 20260906114003 | 17 | 21 | 0.0 | 0.0 | 0.00 | 0.00 | 0.00 | 96 | 1017.2 |
| 20260906113005 | 17 | 21 | 0.0 | 0.0 | 0.00 | 0.00 | 0.00 | 96 | 1017.0 |
| 20260906112003 | 17 | 21 | 0.0 | 0.0 | 0.00 | 0.00 | 0.00 | 96 | 1016.7 |
| 20260906111005 | 17 | 21 | 0.0 | 0.0 | 0.00 | 0.00 | 0.00 | 96 | 1016.7 |
| 20260906105003 | 17 | 21 | 0.0 | 0.0 | 0.00 | 0.00 | 0.00 | 96 | 1016.7 |
| 20260906104004 | 17 | 21 | 0.0 | 0.0 | 0.00 | 0.00 | 0.00 | 96 | 1016.8 |
| 20260906102003 | 17 | 21 | 0.0 | 0.0 | 0.00 | 0.00 | 0.00 | 97 | 1016.6 |
| 20260906101003 | 17 | 21 | 0.0 | 0.0 | 0.00 | 0.00 | 0.00 | 97 | 1016.6 |
| 20260906100005 | 17 | 21 | 0.0 | 0.0 | 0.00 | 0.00 | 0.00 | 97 | 1016.5 |
| 20260906095003 | 17 | 21 | 0.0 | 0.0 | 0.00 | 0.00 | 0.00 | 97 | 1016.5 |
| 20260906094004 | 17 | 21 | 0.0 | 0.0 | 0.00 | 0.00 | 0.00 | 97 | 1016.5 |
| 20260906093005 | 17 | 21 | 0.0 | 0.0 | 0.00 | 0.00 | 0.00 | 97 | 1016.4 |
| 20260906091003 | 17 | 21 | 0.0 | 0.0 | 0.00 | 0.00 | 0.00 | 97 | 1016.1 |
| 20260906090004 | 17 | 21 | 0.0 | 0.0 | 0.00 | 0.00 | 0.00 | 97 | 1016.2 |
| 20260906085003 | 17 | 21 | 0.0 | 0.0 | 0.00 | 0.00 | 0.00 | 97 | 1016.4 |
| 20260906084003 | 17 | 21 | 0.0 | 0.0 | 0.00 | 0.00 | 0.00 | 97 | 1016.3 |
| 20260906083003 | 17 | 21 | 0.0 | 0.0 | 0.00 | 0.00 | 0.00 | 96 | 1016.3 |
| 20260906082003 | 17 | 21 | 0.0 | 0.0 | 0.00 | 0.00 | 0.00 | 96 | 1016.4 |
| 20260906081003 | 16 | 21 | 0.0 | 0.0 | 0.00 | 0.00 | 0.00 | 96 | 1016.3 |
| 20260906080004 | 16 | 21 | 0.0 | 0.0 | 0.00 | 0.00 | 0.00 | 96 | 1016.0 |
| 20260906074005 | 17 | 21 | 0.0 | 0.0 | 0.00 | 0.00 | 0.00 | 96 | 1016.0 |
| 20260906073005 | 17 | 21 | 0.0 | 0.0 | 0.00 | 0.00 | 0.00 | 96 | 1015.8 |
| 20260906070004 | 17 | 21 | 0.0 | 0.0 | 0.00 | 0.00 | 0.00 | 96 | 1015.8 |
| 20260906065005 | 17 | 21 | 0.0 | 0.0 | 0.00 | 0.00 | 0.00 | 96 | 1015.9 |
| 20260906064005 | 17 | 21 | 0.0 | 0.0 | 0.00 | 0.00 | 0.00 | 96 | 1016.1 |
| 20260906063004 | 17 | 21 | 0.0 | 0.0 | 0.00 | 0.00 | 0.00 | 96 | 1015.9 |
| 20260906062003 | 17 | 21 | 0.0 | 0.0 | 0.00 | 0.00 | 0.00 | 96 | 1015.9 |
| 20260906061005 | 17 | 21 | 0.0 | 0.0 | 0.00 | 0.00 | 0.00 | 96 | 1015.8 |
| 20260906060004 | 17 | 21 | 0.0 | 0.0 | 0.00 | 0.00 | 0.00 | 96 | 1015.7 |
| 20260906055003 | 17 | 21 | 0.0 | 0.0 | 0.00 | 0.00 | 0.00 | 95 | 1015.7 |
| 20260906054003 | 17 | 21 | 0.0 | 0.0 | 0.00 | 0.00 | 0.00 | 96 | 1015.8 |
| 20260906053004 | 17 | 21 | 0.0 | 0.0 | 0.00 | 0.00 | 0.00 | 96 | 1015.8 |
| 20260906052003 | 17 | 21 | 0.0 | 0.0 | 0.00 | 0.00 | 0.00 | 95 | 1015.7 |
| 20260906050006 | 17 | 21 | 0.0 | 0.0 | 0.00 | 0.00 | 0.00 | 95 | 1015.6 |
| 20260906044004 | 17 | 21 | 0.0 | 0.0 | 0.00 | 0.00 | 0.00 | 95 | 1015.5 |
| 20260906043003 | 17 | 21 | 0.0 | 0.0 | 0.00 | 0.00 | 0.00 | 95 | 1015.5 |
| 20260906042004 | 17 | 21 | 0.0 | 0.0 | 0.00 | 0.00 | 0.00 | 95 | 1015.2 |
| 20260906041005 | 17 | 21 | 0.0 | 0.0 | 0.00 | 0.00 | 0.00 | 95 | 1015.1 |
| 20260906040004 | 18 | 21 | 0.0 | 0.0 | 0.00 | 0.00 | 0.00 | 95 | 1015.1 |
| 20260906035003 | 18 | 21 | 0.0 | 0.0 | 0.00 | 0.00 | 0.00 | 95 | 1015.3 |
| 20260906033003 | 18 | 21 | 0.0 | 0.0 | 0.00 | 0.00 | 0.00 | 95 | 1015.1 |
| 20260906030004 | 18 | 21 | 0.0 | 0.0 | 0.00 | 0.00 | 0.00 | 94 | 1015.4 |
| 20260906025003 | 18 | 21 | 0.0 | 0.0 | 0.00 | 0.00 | 0.00 | 94 | 1015.4 |
| 20260906024005 | 18 | 21 | 0.0 | 0.0 | 0.00 | 0.00 | 0.00 | 94 | 1015.4 |
| 20260906023004 | 18 | 21 | 0.0 | 0.0 | 0.00 | 0.00 | 0.00 | 94 | 1015.1 |
| 20260906022004 | 18 | 21 | 0.0 | 0.0 | 0.00 | 0.00 | 0.00 | 93 | 1015.1 |
| 20260906020004 | 19 | 33 | 0.0 | 3.2 | 0.00 | 0.00 | 0.00 | 93 | 1015.0 |
| 20260906014004 | 20 | 23 | 0.0 | 1.6 | 0.00 | 0.00 | 0.00 | 93 | 1014.9 |
| 20260906012003 | 20 | 23 | 0.0 | 0.0 | 0.00 | 0.00 | 0.00 | 92 | 1014.9 |
| 20260906011004 | 20 | 23 | 0.0 | 3.2 | 0.00 | 0.00 | 0.00 | 92 | 1014.8 |
| 20260906010004 | 20 | 22 | 0.0 | 4.8 | 0.00 | 0.00 | 0.00 | 91 | 1014.8 |
| 20260906004004 | 21 | 14 | 0.0 | 4.8 | 0.00 | 0.00 | 0.00 | 91 | 1014.7 |
| 20260906003004 | 21 | 14 | 0.0 | 9.7 | 0.00 | 0.00 | 0.00 | 91 | 1014.6 |
| 20260906002003 | 21 | 3 | 3.2 | 9.7 | 0.00 | 0.00 | 0.00 | 92 | 1014.8 |
| 20260906001004 | 21 | 304 | 1.6 | 6.4 | 0.00 | 0.00 | 0.00 | 92 | 1014.9 |
| 20260906000003 | 21 | 5 | 0.0 | 8.0 | 0.00 | 0.00 | 0.00 | 92 | 1014.8 |
| 20260905235004 | 22 | 354 | 0.0 | 6.4 | 0.00 | 0.00 | 0.00 | 92 | 1014.8 |
| 20260905234003 | 22 | 357 | 3.2 | 8.0 | 0.00 | 0.00 | 0.00 | 92 | 1014.9 |
| 20260905233003 | 22 | 28 | 1.6 | 8.0 | 0.00 | 0.00 | 0.00 | 92 | 1014.7 |
| 20260905232004 | 22 | 21 | 1.6 | 6.4 | 0.00 | 0.00 | 0.00 | 92 | 1014.6 |
| 20260905231003 | 22 | 15 | 0.0 | 6.4 | 0.00 | 0.00 | 0.00 | 92 | 1014.9 |
| 20260905230004 | 22 | 48 | 0.0 | 8.0 | 0.00 | 0.00 | 0.00 | 92 | 1014.9 |
| 20260905224004 | 22 | 330 | 3.2 | 16.1 | 0.00 | 0.00 | 0.00 | 92 | 1014.7 |
| 20260905223004 | 22 | 29 | 1.6 | 11.3 | 0.00 | 0.00 | 0.00 | 92 | 1014.5 |
| 20260905222003 | 22 | 350 | 4.8 | 12.9 | 0.00 | 0.00 | 0.00 | 93 | 1014.5 |
| 20260905221003 | 22 | 98 | 3.2 | 12.9 | 0.00 | 0.00 | 0.00 | 93 | 1014.4 |
| 20260905215004 | 22 | 354 | 3.2 | 14.5 | 0.00 | 0.00 | 0.00 | 92 | 1014.2 |
| 20260905214004 | 22 | 19 | 1.6 | 14.5 | 0.00 | 0.00 | 0.00 | 92 | 1014.1 |
| 20260905211003 | 22 | 98 | 6.4 | 12.9 | 0.00 | 0.00 | 0.00 | 92 | 1014.2 |
| 20260905210004 | 22 | 17 | 8.0 | 14.5 | 0.00 | 0.00 | 0.00 | 91 | 1014.3 |
| 20260905205003 | 22 | 356 | 4.8 | 16.1 | 0.00 | 0.00 | 0.00 | 91 | 1014.3 |
| 20260905204003 | 23 | 350 | 4.8 | 12.9 | 0.00 | 0.00 | 0.00 | 92 | 1014.1 |
| 20260905203003 | 23 | 50 | 1.6 | 14.5 | 0.00 | 0.00 | 0.00 | 91 | 1014.0 |
| 20260905202004 | 23 | 22 | 6.4 | 12.9 | 0.00 | 0.00 | 0.00 | 91 | 1014.1 |
| 20260905201003 | 23 | 56 | 4.8 | 12.9 | 0.00 | 0.00 | 0.00 | 91 | 1014.1 |
| 20260905200004 | 23 | 82 | 6.4 | 12.9 | 0.00 | 0.00 | 0.00 | 90 | 1014.1 |
| 20260905195004 | 23 | 26 | 4.8 | 9.7 | 0.00 | 0.00 | 0.00 | 90 | 1014.1 |
| 20260905194004 | 23 | 4 | 3.2 | 9.7 | 0.00 | 0.00 | 0.00 | 89 | 1014.2 |
| 20260905193004 | 24 | 3 | 6.4 | 14.5 | 0.00 | 0.00 | 0.00 | 89 | 1014.1 |
| 20260905192003 | 24 | 358 | 3.2 | 14.5 | 0.00 | 0.00 | 0.00 | 88 | 1014.0 |
| 20260905191004 | 25 | 97 | 3.2 | 12.9 | 0.00 | 0.00 | 0.00 | 87 | 1014.1 |
| 20260905190004 | 25 | 1 | 6.4 | 17.7 | 0.00 | 0.00 | 0.00 | 88 | 1014.0 |
| 20260905184005 | 25 | 36 | 3.2 | 12.9 | 0.00 | 0.00 | 0.00 | 88 | 1014.0 |
| 20260905182003 | 25 | 4 | 3.2 | 12.9 | 0.00 | 0.00 | 0.00 | 91 | 1014.0 |
| 20260905175004 | 25 | 234 | 1.6 | 11.3 | 0.00 | 0.00 | 0.00 | 91 | 1013.8 |
| 20260905174005 | 25 | 98 | 0.0 | 11.3 | 0.00 | 0.00 | 0.00 | 90 | 1013.8 |
| 20260905172004 | 25 | 121 | 1.6 | 11.3 | 0.00 | 0.00 | 0.00 | 90 | 1013.8 |
| 20260905170004 | 25 | 358 | 0.0 | 6.4 | 0.00 | 0.00 | 0.00 | 90 | 1013.8 |
| 20260905165004 | 25 | 242 | 0.0 | 12.9 | 0.00 | 0.00 | 0.00 | 89 | 1013.8 |
| 20260905164004 | 25 | 344 | 4.8 | 12.9 | 0.00 | 0.00 | 0.00 | 89 | 1013.8 |
| 20260905163003 | 25 | 40 | 1.6 | 8.0 | 0.00 | 0.00 | 0.00 | 88 | 1013.8 |
| 20260905162004 | 25 | 67 | 1.6 | 6.4 | 0.00 | 0.00 | 0.00 | 89 | 1013.8 |
| 20260905161004 | 25 | 277 | 3.2 | 11.3 | 0.00 | 0.00 | 0.00 | 90 | 1013.8 |
| 20260905160004 | 25 | 321 | 3.2 | 8.0 | 0.00 | 0.00 | 0.00 | 90 | 1013.8 |
| 20260905155003 | 25 | 284 | 1.6 | 12.9 | 0.00 | 0.00 | 0.00 | 91 | 1013.7 |
| 20260905154003 | 24 | 61 | 3.2 | 11.3 | 0.00 | 0.00 | 0.00 | 92 | 1013.6 |
| 20260905153004 | 24 | 304 | 1.6 | 9.7 | 0.00 | 0.00 | 0.00 | 92 | 1013.6 |
| 20260905150004 | 23 | 47 | 4.8 | 6.4 | 0.00 | 0.00 | 0.00 | 95 | 1013.5 |
| 20260905145004 | 23 | 347 | 0.0 | 12.9 | 0.00 | 0.00 | 0.00 | 95 | 1013.3 |
| 20260905144003 | 23 | 8 | 4.8 | 11.3 | 0.00 | 0.00 | 0.00 | 96 | 1013.3 |
| 20260905143004 | 22 | 359 | 1.6 | 6.4 | 0.00 | 0.00 | 0.00 | 96 | 1013.1 |
| 20260905142005 | 22 | 19 | 6.4 | 8.0 | 0.00 | 0.00 | 0.00 | 96 | 1013.1 |
| 20260905141003 | 22 | 15 | 4.8 | 12.9 | 0.00 | 0.00 | 0.00 | 97 | 1013.1 |